User: anonymous   Login
Location: Bovenkerk
(52.2915°N, 4.8336°E)
Time: 11:34:09
(UTC+00:00)
Language:

Cosmos 1461 - Orbit

View from above orbital plane
View from above orbital plane
View from above satellite
View from above satellite

Ground track
Ground track

The orbit data is extracted from the following two-line orbital elements,

1 14064U 83044A   20185.14131344  .00000153  00000-0  27257-4 0  9997
2 14064  65.0011  81.0733 0112743 316.7477  42.4825 14.94739792889493
Epoch (UTC): 03 July 2020 03:23:29
Eccentricity: 0.0112743
inclination: 65.0011°
perigee height: 505 km
apogee height: 661 km
right ascension of ascending node: 81.0733°
argument of perigee: 316.7477°
revolutions per day: 14.94739792
mean anomaly at epoch: 42.4825°
orbit number at epoch: 88949

The dashed part of the orbit path shows where the satellite is in the earth's shadow,  

DLR